Year,Month,Day,Hour,Minute,Value (Times are PST for temperature in C)
2018,05,06,00,00,12.90
2018,05,06,00,01,12.90
2018,05,06,00,02,12.90
2018,05,06,00,03,12.90
2018,05,06,00,04,12.80
2018,05,06,00,05,12.80
2018,05,06,00,06,12.80
2018,05,06,00,07,12.80
2018,05,06,00,08,12.70
2018,05,06,00,09,12.70
2018,05,06,00,10,12.70
2018,05,06,00,11,12.60
2018,05,06,00,12,12.60
2018,05,06,00,13,12.60
2018,05,06,00,14,12.60
2018,05,06,00,15,12.50
2018,05,06,00,16,12.50
2018,05,06,00,17,12.40
2018,05,06,00,18,12.40
2018,05,06,00,19,12.50
2018,05,06,00,20,12.40
2018,05,06,00,21,12.40
2018,05,06,00,22,12.40
2018,05,06,00,23,12.40
2018,05,06,00,24,12.40
2018,05,06,00,25,12.40
2018,05,06,00,26,12.30
2018,05,06,00,27,12.30
2018,05,06,00,28,12.30
2018,05,06,00,29,12.30
2018,05,06,00,30,12.30
2018,05,06,00,31,12.30
2018,05,06,00,32,12.20
2018,05,06,00,33,12.20
2018,05,06,00,34,12.20
2018,05,06,00,35,12.20
2018,05,06,00,36,12.20
2018,05,06,00,37,12.20
2018,05,06,00,38,12.20
2018,05,06,00,39,12.10
2018,05,06,00,40,12.10
2018,05,06,00,41,12.10
2018,05,06,00,42,12.10
2018,05,06,00,43,12.10
2018,05,06,00,44,12.10
2018,05,06,00,45,12.10
2018,05,06,00,46,12.00
2018,05,06,00,47,12.00
2018,05,06,00,48,12.00
2018,05,06,00,49,12.00
2018,05,06,00,50,11.90
2018,05,06,00,51,11.90
2018,05,06,00,52,11.90
2018,05,06,00,53,11.80
2018,05,06,00,54,11.80
2018,05,06,00,55,11.80
2018,05,06,00,56,11.80
2018,05,06,00,57,11.80
2018,05,06,00,58,11.80
2018,05,06,00,59,11.80
2018,05,06,01,00,11.80
2018,05,06,01,01,11.70
2018,05,06,01,02,11.70
2018,05,06,01,03,11.70
2018,05,06,01,04,11.70
2018,05,06,01,05,11.70
2018,05,06,01,06,11.70
2018,05,06,01,07,11.70
2018,05,06,01,08,11.70
2018,05,06,01,09,11.70
2018,05,06,01,10,11.70
2018,05,06,01,11,11.80
2018,05,06,01,12,11.80
2018,05,06,01,13,11.80
2018,05,06,01,14,11.80
2018,05,06,01,15,11.80
2018,05,06,01,16,11.80
2018,05,06,01,17,11.80
2018,05,06,01,18,11.80
2018,05,06,01,19,11.80
2018,05,06,01,20,11.80
2018,05,06,01,21,11.80
2018,05,06,01,22,11.80
2018,05,06,01,23,11.80
2018,05,06,01,24,11.80
2018,05,06,01,25,11.80
2018,05,06,01,26,11.70
2018,05,06,01,27,11.70
2018,05,06,01,28,11.70
2018,05,06,01,29,11.70
2018,05,06,01,30,11.70
2018,05,06,01,31,11.60
2018,05,06,01,32,11.60
2018,05,06,01,33,11.60
2018,05,06,01,34,11.60
2018,05,06,01,35,11.60
2018,05,06,01,36,11.60
2018,05,06,01,37,11.60
2018,05,06,01,38,11.60
2018,05,06,01,39,11.60
2018,05,06,01,40,11.60
2018,05,06,01,41,11.50
2018,05,06,01,42,11.50
2018,05,06,01,43,11.50
2018,05,06,01,44,11.50
2018,05,06,01,45,11.50
2018,05,06,01,46,11.50
2018,05,06,01,47,11.50
2018,05,06,01,48,11.50
2018,05,06,01,49,11.50
2018,05,06,01,50,11.50
2018,05,06,01,51,11.60
2018,05,06,01,52,11.60
2018,05,06,01,53,11.60
2018,05,06,01,54,11.60
2018,05,06,01,55,11.70
2018,05,06,01,56,11.70
2018,05,06,01,57,11.70
2018,05,06,01,58,11.70
2018,05,06,01,59,11.70
2018,05,06,02,00,11.70
2018,05,06,02,01,11.70
2018,05,06,02,02,11.70
2018,05,06,02,03,11.70
2018,05,06,02,04,11.70
2018,05,06,02,05,11.70
2018,05,06,02,06,11.60
2018,05,06,02,07,11.60
2018,05,06,02,08,11.60
2018,05,06,02,09,11.60
2018,05,06,02,10,11.50
2018,05,06,02,11,11.50
2018,05,06,02,12,11.50
2018,05,06,02,13,11.50
2018,05,06,02,14,11.40
2018,05,06,02,15,11.40
2018,05,06,02,16,11.40
2018,05,06,02,17,11.40
2018,05,06,02,18,11.40
2018,05,06,02,19,11.40
2018,05,06,02,20,11.40
2018,05,06,02,21,11.40
2018,05,06,02,22,11.40
2018,05,06,02,23,11.40
2018,05,06,02,24,11.40
2018,05,06,02,25,11.30
2018,05,06,02,26,11.30
2018,05,06,02,27,11.30
2018,05,06,02,28,11.20
2018,05,06,02,29,11.20
2018,05,06,02,30,11.10
2018,05,06,02,31,11.10
2018,05,06,02,32,11.10
2018,05,06,02,33,11.10
2018,05,06,02,34,11.00
2018,05,06,02,35,11.00
2018,05,06,02,36,11.00
2018,05,06,02,37,10.90
2018,05,06,02,38,10.90
2018,05,06,02,39,10.90
2018,05,06,02,40,10.90
2018,05,06,02,41,10.90
2018,05,06,02,42,10.90
2018,05,06,02,43,10.90
2018,05,06,02,44,10.90
2018,05,06,02,45,10.90
2018,05,06,02,46,10.90
2018,05,06,02,47,10.90
2018,05,06,02,48,11.00
2018,05,06,02,49,11.00
2018,05,06,02,50,11.00
2018,05,06,02,51,11.00
2018,05,06,02,52,11.00
2018,05,06,02,53,11.00
2018,05,06,02,54,10.90
2018,05,06,02,55,10.90
2018,05,06,02,56,10.90
2018,05,06,02,57,10.90
2018,05,06,02,58,10.90
2018,05,06,02,59,10.90
2018,05,06,03,00,10.90
2018,05,06,03,01,10.90
2018,05,06,03,02,10.90
2018,05,06,03,03,10.90
2018,05,06,03,04,10.90
2018,05,06,03,05,10.90
2018,05,06,03,06,11.00
2018,05,06,03,07,11.00
2018,05,06,03,08,11.00
2018,05,06,03,09,11.00
2018,05,06,03,10,11.10
2018,05,06,03,11,11.10
2018,05,06,03,12,11.10
2018,05,06,03,13,11.20
2018,05,06,03,14,11.20
2018,05,06,03,15,11.20
2018,05,06,03,16,11.30
2018,05,06,03,17,11.30
2018,05,06,03,18,11.30
2018,05,06,03,19,11.30
2018,05,06,03,20,11.30
2018,05,06,03,21,11.30
2018,05,06,03,22,11.30
2018,05,06,03,23,11.30
2018,05,06,03,24,11.30
2018,05,06,03,25,11.30
2018,05,06,03,26,11.30
2018,05,06,03,27,11.30
2018,05,06,03,28,11.30
2018,05,06,03,29,11.30
2018,05,06,03,30,11.30
2018,05,06,03,31,11.30
2018,05,06,03,32,11.30
2018,05,06,03,33,11.20
2018,05,06,03,34,11.20
2018,05,06,03,35,11.20
2018,05,06,03,36,11.10
2018,05,06,03,37,11.10
2018,05,06,03,38,11.10
2018,05,06,03,39,11.00
2018,05,06,03,40,10.90
2018,05,06,03,41,10.90
2018,05,06,03,42,10.80
2018,05,06,03,43,10.80
2018,05,06,03,44,10.80
2018,05,06,03,45,10.70
2018,05,06,03,46,10.70
2018,05,06,03,47,10.70
2018,05,06,03,48,10.70
2018,05,06,03,49,10.70
2018,05,06,03,50,10.80
2018,05,06,03,51,10.80
2018,05,06,03,52,10.80
2018,05,06,03,53,10.70
2018,05,06,03,54,10.70
2018,05,06,03,55,10.70
2018,05,06,03,56,10.70
2018,05,06,03,57,10.80
2018,05,06,03,58,10.80
2018,05,06,03,59,10.80
2018,05,06,04,00,10.80
2018,05,06,04,01,10.80
2018,05,06,04,02,10.80
2018,05,06,04,03,10.80
2018,05,06,04,04,10.80
2018,05,06,04,05,10.80
2018,05,06,04,06,10.80
2018,05,06,04,07,10.80
2018,05,06,04,08,10.80
2018,05,06,04,09,10.80
2018,05,06,04,10,10.80
2018,05,06,04,11,10.80
2018,05,06,04,12,10.80
2018,05,06,04,13,10.80
2018,05,06,04,14,10.80
2018,05,06,04,15,10.80
2018,05,06,04,16,10.80
2018,05,06,04,17,10.80
2018,05,06,04,18,10.90
2018,05,06,04,19,10.90
2018,05,06,04,20,10.90
2018,05,06,04,21,10.90
2018,05,06,04,22,10.90
2018,05,06,04,23,11.00
2018,05,06,04,24,11.00
2018,05,06,04,25,11.00
2018,05,06,04,26,11.00
2018,05,06,04,27,11.00
2018,05,06,04,28,10.90
2018,05,06,04,29,10.90
2018,05,06,04,30,10.90
2018,05,06,04,31,10.90
2018,05,06,04,32,10.90
2018,05,06,04,33,10.90
2018,05,06,04,34,10.90
2018,05,06,04,35,10.90
2018,05,06,04,36,10.90
2018,05,06,04,37,10.90
2018,05,06,04,38,10.90
2018,05,06,04,39,10.90
2018,05,06,04,40,11.00
2018,05,06,04,41,11.10
2018,05,06,04,42,11.10
2018,05,06,04,43,11.20
2018,05,06,04,44,11.30
2018,05,06,04,45,11.30
2018,05,06,04,46,11.30
2018,05,06,04,47,11.20
2018,05,06,04,48,11.30
2018,05,06,04,49,11.30
2018,05,06,04,50,11.30
2018,05,06,04,51,11.30
2018,05,06,04,52,11.30
2018,05,06,04,53,11.30
2018,05,06,04,54,11.30
2018,05,06,04,55,11.30
2018,05,06,04,56,11.20
2018,05,06,04,57,11.20
2018,05,06,04,58,11.20
2018,05,06,04,59,11.20
2018,05,06,05,00,11.20
2018,05,06,05,01,11.30
2018,05,06,05,02,11.40
2018,05,06,05,03,11.50
2018,05,06,05,04,11.60
2018,05,06,05,05,11.70
2018,05,06,05,06,11.70
2018,05,06,05,07,11.70
2018,05,06,05,08,11.70
2018,05,06,05,09,11.70
2018,05,06,05,10,11.70
2018,05,06,05,11,11.70
2018,05,06,05,12,11.70
2018,05,06,05,13,11.60
2018,05,06,05,14,11.60
2018,05,06,05,15,11.60
2018,05,06,05,16,11.60
2018,05,06,05,17,11.50
2018,05,06,05,18,11.50
2018,05,06,05,19,11.50
2018,05,06,05,20,11.50
2018,05,06,05,21,11.50
2018,05,06,05,22,11.50
2018,05,06,05,23,11.40
2018,05,06,05,24,11.40
2018,05,06,05,25,11.40
2018,05,06,05,26,11.40
2018,05,06,05,27,11.40
2018,05,06,05,28,11.30
2018,05,06,05,29,11.30
2018,05,06,05,30,11.30
2018,05,06,05,31,11.20
2018,05,06,05,32,11.20
2018,05,06,05,33,11.20
2018,05,06,05,34,11.20
2018,05,06,05,35,11.10
2018,05,06,05,36,11.10
2018,05,06,05,37,11.10
2018,05,06,05,38,11.10
2018,05,06,05,39,11.10
2018,05,06,05,40,11.10
2018,05,06,05,41,11.10
2018,05,06,05,42,11.10
2018,05,06,05,43,11.10
2018,05,06,05,44,11.10
2018,05,06,05,45,11.20
2018,05,06,05,46,11.20
2018,05,06,05,47,11.20
2018,05,06,05,48,11.20
2018,05,06,05,49,11.30
2018,05,06,05,50,11.30
2018,05,06,05,51,11.30
2018,05,06,05,52,11.40
2018,05,06,05,53,11.40
2018,05,06,05,54,11.40
2018,05,06,05,55,11.40
2018,05,06,05,56,11.40
2018,05,06,05,57,11.40
2018,05,06,05,58,11.40
2018,05,06,05,59,11.40
2018,05,06,06,00,11.40
2018,05,06,06,01,11.30
2018,05,06,06,02,11.30
2018,05,06,06,03,11.30
2018,05,06,06,04,11.30
2018,05,06,06,05,11.30
2018,05,06,06,06,11.30
2018,05,06,06,07,11.30
2018,05,06,06,08,11.20
2018,05,06,06,09,11.20
2018,05,06,06,10,11.20
2018,05,06,06,11,11.20
2018,05,06,06,12,11.20
2018,05,06,06,13,11.20
2018,05,06,06,14,11.20
2018,05,06,06,15,11.20
2018,05,06,06,16,11.20
2018,05,06,06,17,11.20
2018,05,06,06,18,11.20
2018,05,06,06,19,11.20
2018,05,06,06,20,11.10
2018,05,06,06,21,11.10
2018,05,06,06,22,11.10
2018,05,06,06,23,11.10
2018,05,06,06,24,11.10
2018,05,06,06,25,11.10
2018,05,06,06,26,11.10
2018,05,06,06,27,11.10
2018,05,06,06,28,11.10
2018,05,06,06,29,11.10
2018,05,06,06,30,11.10
2018,05,06,06,31,11.10
2018,05,06,06,32,11.10
2018,05,06,06,33,11.10
2018,05,06,06,34,11.10
2018,05,06,06,35,11.10
2018,05,06,06,36,11.10
2018,05,06,06,37,11.00
2018,05,06,06,38,11.00
2018,05,06,06,39,11.00
2018,05,06,06,40,11.00
2018,05,06,06,41,11.00
2018,05,06,06,42,11.00
2018,05,06,06,43,11.00
2018,05,06,06,44,11.00
2018,05,06,06,45,11.10
2018,05,06,06,46,11.10
2018,05,06,06,47,11.10
2018,05,06,06,48,11.10
2018,05,06,06,49,11.10
2018,05,06,06,50,11.10
2018,05,06,06,51,11.10
2018,05,06,06,52,11.20
2018,05,06,06,53,11.20
2018,05,06,06,54,11.20
2018,05,06,06,55,11.20
2018,05,06,06,56,11.20
2018,05,06,06,57,11.20
2018,05,06,06,58,11.30
2018,05,06,06,59,11.30
2018,05,06,07,00,11.30
2018,05,06,07,01,11.30
2018,05,06,07,02,11.30
2018,05,06,07,03,11.40
2018,05,06,07,04,11.40
2018,05,06,07,05,11.40
2018,05,06,07,06,11.30
2018,05,06,07,07,11.30
2018,05,06,07,08,11.20
2018,05,06,07,09,11.20
2018,05,06,07,10,11.10
2018,05,06,07,11,11.00
2018,05,06,07,12,11.00
2018,05,06,07,13,11.00
2018,05,06,07,14,10.90
2018,05,06,07,15,10.90
2018,05,06,07,16,10.90
2018,05,06,07,17,10.90
2018,05,06,07,18,10.90
2018,05,06,07,19,10.90
2018,05,06,07,20,10.90
2018,05,06,07,21,10.90
2018,05,06,07,22,10.90
2018,05,06,07,23,10.90
2018,05,06,07,24,10.90
2018,05,06,07,25,10.90
2018,05,06,07,26,10.90
2018,05,06,07,27,10.90
2018,05,06,07,28,10.90
2018,05,06,07,29,10.90
2018,05,06,07,30,10.90
2018,05,06,07,31,10.90
2018,05,06,07,32,10.90
2018,05,06,07,33,10.90
2018,05,06,07,34,11.00
2018,05,06,07,35,11.00
2018,05,06,07,36,11.00
2018,05,06,07,37,11.00
2018,05,06,07,38,11.00
2018,05,06,07,39,11.00
2018,05,06,07,40,11.10
2018,05,06,07,41,11.10
2018,05,06,07,42,11.10
2018,05,06,07,43,11.10
2018,05,06,07,44,11.10
2018,05,06,07,45,11.10
2018,05,06,07,46,11.10
2018,05,06,07,47,11.20
2018,05,06,07,48,11.20
2018,05,06,07,49,11.20
2018,05,06,07,50,11.20
2018,05,06,07,51,11.20
2018,05,06,07,52,11.30
2018,05,06,07,53,11.30
2018,05,06,07,54,11.30
2018,05,06,07,55,11.30
2018,05,06,07,56,11.30
2018,05,06,07,57,11.40
2018,05,06,07,58,11.40
2018,05,06,07,59,11.40
2018,05,06,08,00,11.40
2018,05,06,08,01,11.50
2018,05,06,08,02,11.50
2018,05,06,08,03,11.60
2018,05,06,08,04,11.60
2018,05,06,08,05,11.60
2018,05,06,08,06,11.70
2018,05,06,08,07,11.70
2018,05,06,08,08,11.70
2018,05,06,08,09,11.80
2018,05,06,08,10,11.80
2018,05,06,08,11,11.80
2018,05,06,08,12,11.90
2018,05,06,08,13,11.90
2018,05,06,08,14,11.90
2018,05,06,08,15,12.00
2018,05,06,08,16,12.00
2018,05,06,08,17,12.10
2018,05,06,08,18,12.10
2018,05,06,08,19,12.10
2018,05,06,08,20,12.20
2018,05,06,08,21,12.20
2018,05,06,08,22,12.30
2018,05,06,08,23,12.30
2018,05,06,08,24,12.40
2018,05,06,08,25,12.40
2018,05,06,08,26,12.50
2018,05,06,08,27,12.60
2018,05,06,08,28,12.60
2018,05,06,08,29,12.70
2018,05,06,08,30,12.80
2018,05,06,08,31,12.90
2018,05,06,08,32,12.90
2018,05,06,08,33,13.00
2018,05,06,08,34,13.00
2018,05,06,08,35,13.10
2018,05,06,08,36,13.10
2018,05,06,08,37,13.10
2018,05,06,08,38,13.10
2018,05,06,08,39,13.10
2018,05,06,08,40,13.10
2018,05,06,08,41,13.10
2018,05,06,08,42,13.10
2018,05,06,08,43,13.10
2018,05,06,08,44,13.10
2018,05,06,08,45,13.00
2018,05,06,08,46,13.00
2018,05,06,08,47,13.00
2018,05,06,08,48,12.90
2018,05,06,08,49,12.90
2018,05,06,08,50,12.90
2018,05,06,08,51,12.80
2018,05,06,08,52,12.80
2018,05,06,08,53,12.80
2018,05,06,08,54,12.80
2018,05,06,08,55,12.80
2018,05,06,08,56,12.90
2018,05,06,08,57,12.90
2018,05,06,08,58,12.90
2018,05,06,08,59,12.90
2018,05,06,09,00,13.00
2018,05,06,09,01,13.00
2018,05,06,09,02,13.10
2018,05,06,09,03,13.10
2018,05,06,09,04,13.20
2018,05,06,09,05,13.20
2018,05,06,09,06,13.20
2018,05,06,09,07,13.30
2018,05,06,09,08,13.40
2018,05,06,09,09,13.40
2018,05,06,09,10,13.50
2018,05,06,09,11,13.60
2018,05,06,09,12,13.60
2018,05,06,09,13,13.70
2018,05,06,09,14,13.70
2018,05,06,09,15,13.80
2018,05,06,09,16,13.90
2018,05,06,09,17,13.90
2018,05,06,09,18,14.00
2018,05,06,09,19,14.10
2018,05,06,09,20,14.10
2018,05,06,09,21,14.10
2018,05,06,09,22,14.20
2018,05,06,09,23,14.20
2018,05,06,09,24,14.30
2018,05,06,09,25,14.30
2018,05,06,09,26,14.30
2018,05,06,09,27,14.40
2018,05,06,09,28,14.40
2018,05,06,09,29,14.40
2018,05,06,09,30,14.50
2018,05,06,09,31,14.50
2018,05,06,09,32,14.50
2018,05,06,09,33,14.60
2018,05,06,09,34,14.60
2018,05,06,09,35,14.60
2018,05,06,09,36,14.60
2018,05,06,09,37,14.70
2018,05,06,09,38,14.70
2018,05,06,09,39,14.70
2018,05,06,09,40,14.70
2018,05,06,09,41,14.70
2018,05,06,09,42,14.70
2018,05,06,09,43,14.80
2018,05,06,09,44,14.80
2018,05,06,09,45,14.80
2018,05,06,09,46,14.80
2018,05,06,09,47,14.80
2018,05,06,09,48,14.80
2018,05,06,09,49,14.90
2018,05,06,09,50,14.90
2018,05,06,09,51,15.00
2018,05,06,09,52,15.10
2018,05,06,09,53,15.10
2018,05,06,09,54,15.20
2018,05,06,09,55,15.20
2018,05,06,09,56,15.30
2018,05,06,09,57,15.30
2018,05,06,09,58,15.40
2018,05,06,09,59,15.40
2018,05,06,10,00,15.50
2018,05,06,10,01,15.60
2018,05,06,10,02,15.70
2018,05,06,10,03,15.70
2018,05,06,10,04,15.80
2018,05,06,10,05,15.90
2018,05,06,10,06,15.90
2018,05,06,10,07,16.00
2018,05,06,10,08,16.00
2018,05,06,10,09,16.00
2018,05,06,10,10,16.10
2018,05,06,10,11,16.10
2018,05,06,10,12,16.20
2018,05,06,10,13,16.20
2018,05,06,10,14,16.20
2018,05,06,10,15,16.20
2018,05,06,10,16,16.20
2018,05,06,10,17,16.20
2018,05,06,10,18,16.20
2018,05,06,10,19,16.30
2018,05,06,10,20,16.30
2018,05,06,10,21,16.30
2018,05,06,10,22,16.40
2018,05,06,10,23,16.50
2018,05,06,10,24,16.60
2018,05,06,10,25,16.60
2018,05,06,10,26,16.60
2018,05,06,10,27,16.70
2018,05,06,10,28,16.70
2018,05,06,10,29,16.70
2018,05,06,10,30,16.70
2018,05,06,10,31,16.70
2018,05,06,10,32,16.70
2018,05,06,10,33,16.80
2018,05,06,10,34,16.70
2018,05,06,10,35,16.70
2018,05,06,10,36,16.80
2018,05,06,10,37,16.80
2018,05,06,10,38,16.80
2018,05,06,10,39,16.80
2018,05,06,10,40,16.80
2018,05,06,10,41,16.80
2018,05,06,10,42,16.80
2018,05,06,10,43,16.80
2018,05,06,10,44,16.80
2018,05,06,10,45,16.70
2018,05,06,10,46,16.70
2018,05,06,10,47,16.70
2018,05,06,10,48,16.60
2018,05,06,10,49,16.60
2018,05,06,10,50,16.50
2018,05,06,10,51,16.50
2018,05,06,10,52,16.40
2018,05,06,10,53,16.30
2018,05,06,10,54,16.30
2018,05,06,10,55,16.20
2018,05,06,10,56,16.20
2018,05,06,10,57,16.30
2018,05,06,10,58,16.40
2018,05,06,10,59,16.50
2018,05,06,11,00,16.50
2018,05,06,11,01,16.60
2018,05,06,11,02,16.70
2018,05,06,11,03,16.70
2018,05,06,11,04,16.70
2018,05,06,11,05,16.70
2018,05,06,11,06,16.70
2018,05,06,11,07,16.70
2018,05,06,11,08,16.70
2018,05,06,11,09,16.70
2018,05,06,11,10,16.70
2018,05,06,11,11,16.70
2018,05,06,11,12,16.70
2018,05,06,11,13,16.70
2018,05,06,11,14,16.70
2018,05,06,11,15,16.70
2018,05,06,11,16,16.80
2018,05,06,11,17,16.90
2018,05,06,11,18,16.90
2018,05,06,11,19,17.00
2018,05,06,11,20,17.10
2018,05,06,11,21,17.20
2018,05,06,11,22,17.20
2018,05,06,11,23,17.30
2018,05,06,11,24,17.30
2018,05,06,11,25,17.40
2018,05,06,11,26,17.40
2018,05,06,11,27,17.50
2018,05,06,11,28,17.60
2018,05,06,11,29,17.60
2018,05,06,11,30,17.70
2018,05,06,11,31,17.80
2018,05,06,11,32,17.90
2018,05,06,11,33,17.90
2018,05,06,11,34,18.00
2018,05,06,11,35,18.10
2018,05,06,11,36,18.20
2018,05,06,11,37,18.20
2018,05,06,11,38,18.20
2018,05,06,11,39,18.30
2018,05,06,11,40,18.40
2018,05,06,11,41,18.50
2018,05,06,11,42,18.60
2018,05,06,11,43,18.70
2018,05,06,11,44,18.80
2018,05,06,11,45,19.00
2018,05,06,11,46,19.00
2018,05,06,11,47,19.10
2018,05,06,11,48,19.20
2018,05,06,11,49,19.20
2018,05,06,11,50,19.20
2018,05,06,11,51,19.10
2018,05,06,11,52,19.10
2018,05,06,11,53,19.00
2018,05,06,11,54,19.00
2018,05,06,11,55,19.00
2018,05,06,11,56,19.00
2018,05,06,11,57,19.10
2018,05,06,11,58,19.20
2018,05,06,11,59,19.20
2018,05,06,12,00,19.20
2018,05,06,12,01,19.20
2018,05,06,12,02,19.10
2018,05,06,12,03,19.00
2018,05,06,12,04,19.00
2018,05,06,12,05,18.90
2018,05,06,12,06,18.80
2018,05,06,12,07,18.70
2018,05,06,12,08,18.80
2018,05,06,12,09,18.90
2018,05,06,12,10,18.90
2018,05,06,12,11,19.10
2018,05,06,12,12,19.20
2018,05,06,12,13,19.30
2018,05,06,12,14,19.40
2018,05,06,12,15,19.40
2018,05,06,12,16,19.40
2018,05,06,12,17,19.40
2018,05,06,12,18,19.50
2018,05,06,12,19,19.60
2018,05,06,12,20,19.70
2018,05,06,12,21,19.70
2018,05,06,12,22,19.80
2018,05,06,12,23,19.80
2018,05,06,12,24,19.80
2018,05,06,12,25,19.80
2018,05,06,12,26,19.80
2018,05,06,12,27,19.80
2018,05,06,12,28,19.80
2018,05,06,12,29,19.80
2018,05,06,12,30,19.80
2018,05,06,12,31,19.80
2018,05,06,12,32,19.80
2018,05,06,12,33,19.80
2018,05,06,12,34,19.90
2018,05,06,12,35,20.00
2018,05,06,12,36,20.10
2018,05,06,12,37,20.20
2018,05,06,12,38,20.20
2018,05,06,12,39,20.30
2018,05,06,12,40,20.40
2018,05,06,12,41,20.40
2018,05,06,12,42,20.40
2018,05,06,12,43,20.50
2018,05,06,12,44,20.50
2018,05,06,12,45,20.60
2018,05,06,12,46,20.70
2018,05,06,12,47,20.70
2018,05,06,12,48,20.80
2018,05,06,12,49,20.80
2018,05,06,12,50,20.80
2018,05,06,12,51,20.80
2018,05,06,12,52,20.90
2018,05,06,12,53,21.00
2018,05,06,12,54,20.90
2018,05,06,12,55,20.80
2018,05,06,12,56,20.80
2018,05,06,12,57,20.70
2018,05,06,12,58,20.70
2018,05,06,12,59,20.70
2018,05,06,13,00,20.70
2018,05,06,13,01,20.70
2018,05,06,13,02,20.60
2018,05,06,13,03,20.70
2018,05,06,13,04,20.60
2018,05,06,13,05,20.40
2018,05,06,13,06,20.30
2018,05,06,13,07,20.30
2018,05,06,13,08,20.30
2018,05,06,13,09,20.30
2018,05,06,13,10,20.40
2018,05,06,13,11,20.40
2018,05,06,13,12,20.40
2018,05,06,13,13,20.40
2018,05,06,13,14,20.40
2018,05,06,13,15,20.50
2018,05,06,13,16,20.50
2018,05,06,13,17,20.60
2018,05,06,13,18,20.60
2018,05,06,13,19,20.70
2018,05,06,13,20,20.80
2018,05,06,13,21,21.00
2018,05,06,13,22,21.10
2018,05,06,13,23,21.20
2018,05,06,13,24,21.20
2018,05,06,13,25,21.10
2018,05,06,13,26,21.00
2018,05,06,13,27,20.90
2018,05,06,13,28,20.90
2018,05,06,13,29,20.90
2018,05,06,13,30,21.00
2018,05,06,13,31,21.10
2018,05,06,13,32,21.10
2018,05,06,13,33,21.20
2018,05,06,13,34,21.20
2018,05,06,13,35,21.20
2018,05,06,13,36,21.20
2018,05,06,13,37,21.20
2018,05,06,13,38,21.20
2018,05,06,13,39,21.20
2018,05,06,13,40,21.30
2018,05,06,13,41,21.40
2018,05,06,13,42,21.50
2018,05,06,13,43,21.50
2018,05,06,13,44,21.60
2018,05,06,13,45,21.70
2018,05,06,13,46,21.70
2018,05,06,13,47,21.70
2018,05,06,13,48,21.80
2018,05,06,13,49,21.80
2018,05,06,13,50,21.80
2018,05,06,13,51,21.80
2018,05,06,13,52,21.80
2018,05,06,13,53,21.90
2018,05,06,13,54,21.90
2018,05,06,13,55,21.90
2018,05,06,13,56,21.90
2018,05,06,13,57,21.90
2018,05,06,13,58,21.80
2018,05,06,13,59,21.70
2018,05,06,14,00,21.60
2018,05,06,14,01,21.50
2018,05,06,14,02,21.40
2018,05,06,14,03,21.20
2018,05,06,14,04,21.20
2018,05,06,14,05,21.10
2018,05,06,14,06,21.10
2018,05,06,14,07,21.10
2018,05,06,14,08,21.10
2018,05,06,14,09,21.10
2018,05,06,14,10,21.10
2018,05,06,14,11,21.10
2018,05,06,14,12,21.00
2018,05,06,14,13,20.90
2018,05,06,14,14,20.80
2018,05,06,14,15,20.80
2018,05,06,14,16,20.80
2018,05,06,14,17,20.70
2018,05,06,14,18,20.70
2018,05,06,14,19,20.70
2018,05,06,14,20,20.70
2018,05,06,14,21,20.70
2018,05,06,14,22,20.70
2018,05,06,14,23,20.80
2018,05,06,14,24,20.90
2018,05,06,14,25,20.90
2018,05,06,14,26,21.10
2018,05,06,14,27,21.10
2018,05,06,14,28,21.20
2018,05,06,14,29,21.20
2018,05,06,14,30,21.30
2018,05,06,14,31,21.40
2018,05,06,14,32,21.50
2018,05,06,14,33,21.60
2018,05,06,14,34,21.70
2018,05,06,14,35,21.70
2018,05,06,14,36,21.70
2018,05,06,14,37,21.60
2018,05,06,14,38,21.50
2018,05,06,14,39,21.40
2018,05,06,14,40,21.30
2018,05,06,14,41,21.30
2018,05,06,14,42,21.30
2018,05,06,14,43,21.40
2018,05,06,14,44,21.40
2018,05,06,14,45,21.50
2018,05,06,14,46,21.50
2018,05,06,14,47,21.60
2018,05,06,14,48,21.60
2018,05,06,14,49,21.70
2018,05,06,14,50,21.60
2018,05,06,14,51,21.50
2018,05,06,14,52,21.50
2018,05,06,14,53,21.50
2018,05,06,14,54,21.60
2018,05,06,14,55,21.60
2018,05,06,14,56,21.50
2018,05,06,14,57,21.40
2018,05,06,14,58,21.20
2018,05,06,14,59,21.10
2018,05,06,15,00,21.10
2018,05,06,15,01,21.00
2018,05,06,15,02,20.90
2018,05,06,15,03,20.90
2018,05,06,15,04,20.90
2018,05,06,15,05,20.90
2018,05,06,15,06,21.00
2018,05,06,15,07,21.10
2018,05,06,15,08,21.20
2018,05,06,15,09,21.40
2018,05,06,15,10,21.50
2018,05,06,15,11,21.70
2018,05,06,15,12,21.80
2018,05,06,15,13,21.90
2018,05,06,15,14,21.90
2018,05,06,15,15,22.00
2018,05,06,15,16,22.10
2018,05,06,15,17,22.20
2018,05,06,15,18,22.20
2018,05,06,15,19,22.10
2018,05,06,15,20,22.00
2018,05,06,15,21,21.80
2018,05,06,15,22,21.70
2018,05,06,15,23,21.50
2018,05,06,15,24,21.40
2018,05,06,15,25,21.30
2018,05,06,15,26,21.10
2018,05,06,15,27,21.10
2018,05,06,15,28,21.00
2018,05,06,15,29,20.90
2018,05,06,15,30,20.80
2018,05,06,15,31,20.80
2018,05,06,15,32,20.80
2018,05,06,15,33,20.80
2018,05,06,15,34,20.80
2018,05,06,15,35,20.90
2018,05,06,15,36,20.90
2018,05,06,15,37,21.00
2018,05,06,15,38,21.10
2018,05,06,15,39,21.20
2018,05,06,15,40,21.20
2018,05,06,15,41,21.30
2018,05,06,15,42,21.40
2018,05,06,15,43,21.40
2018,05,06,15,44,21.50
2018,05,06,15,45,21.50
2018,05,06,15,46,21.50
2018,05,06,15,47,21.40
2018,05,06,15,48,21.30
2018,05,06,15,49,21.20
2018,05,06,15,50,21.10
2018,05,06,15,51,21.00
2018,05,06,15,52,20.90
2018,05,06,15,53,20.80
2018,05,06,15,54,20.70
2018,05,06,15,55,20.70
2018,05,06,15,56,20.70
2018,05,06,15,57,20.70
2018,05,06,15,58,20.70
2018,05,06,15,59,20.70
2018,05,06,16,00,20.60
2018,05,06,16,01,20.60
2018,05,06,16,02,20.60
2018,05,06,16,03,20.60
2018,05,06,16,04,20.60
2018,05,06,16,05,20.50
2018,05,06,16,06,20.50
2018,05,06,16,07,20.50
2018,05,06,16,08,20.50
2018,05,06,16,09,20.40
2018,05,06,16,10,20.40
2018,05,06,16,11,20.30
2018,05,06,16,12,20.30
2018,05,06,16,13,20.20
2018,05,06,16,14,20.20
2018,05,06,16,15,20.10
2018,05,06,16,16,20.00
2018,05,06,16,17,20.00
2018,05,06,16,18,19.90
2018,05,06,16,19,19.90
2018,05,06,16,20,19.90
2018,05,06,16,21,19.90
2018,05,06,16,22,19.90
2018,05,06,16,23,19.90
2018,05,06,16,24,19.90
2018,05,06,16,25,19.90
2018,05,06,16,26,19.80
2018,05,06,16,27,19.80
2018,05,06,16,28,19.70
2018,05,06,16,29,19.70
2018,05,06,16,30,19.60
2018,05,06,16,31,19.60
2018,05,06,16,32,19.60
2018,05,06,16,33,19.50
2018,05,06,16,34,19.50
2018,05,06,16,35,19.50
2018,05,06,16,36,19.50
2018,05,06,16,37,19.50
2018,05,06,16,38,19.50
2018,05,06,16,39,19.50
2018,05,06,16,40,19.50
2018,05,06,16,41,19.50
2018,05,06,16,42,19.40
2018,05,06,16,43,19.30
2018,05,06,16,44,19.20
2018,05,06,16,45,19.10
2018,05,06,16,46,19.00
2018,05,06,16,47,18.90
2018,05,06,16,48,18.90
2018,05,06,16,49,18.80
2018,05,06,16,50,18.80
2018,05,06,16,51,18.80
2018,05,06,16,52,18.80
2018,05,06,16,53,18.90
2018,05,06,16,54,18.90
2018,05,06,16,55,18.90
2018,05,06,16,56,18.90
2018,05,06,16,57,18.90
2018,05,06,16,58,18.90
2018,05,06,16,59,19.00
2018,05,06,17,00,19.00
2018,05,06,17,01,19.00
2018,05,06,17,02,19.00
2018,05,06,17,03,19.00
2018,05,06,17,04,19.00
2018,05,06,17,05,19.10
2018,05,06,17,06,19.10
2018,05,06,17,07,19.10
2018,05,06,17,08,19.20
2018,05,06,17,09,19.20
2018,05,06,17,10,19.20
2018,05,06,17,11,19.20
2018,05,06,17,12,19.20
2018,05,06,17,13,19.30
2018,05,06,17,14,19.30
2018,05,06,17,15,19.30
2018,05,06,17,16,19.30
2018,05,06,17,17,19.30
2018,05,06,17,18,19.30
2018,05,06,17,19,19.40